Date,TemperatureHighF,TemperatureAvgF,TemperatureLowF,DewpointHighF,DewpointAvgF,DewpointLowF,HumidityHigh,HumidityAvg,HumidityLow,PressureMaxIn,PressureMinIn,WindSpeedMaxMPH,WindSpeedAvgMPH,GustSpeedMaxMPH,PrecipitationSumIn
2013-3-1,59.4,50.5,43.6,51.8,45.7,40.9,94,84,69,30.24,30.18,7,2,8,0.00
2013-3-2,50.6,46.3,41.2,47.3,41.3,30.6,92,83,63,30.21,30.04,13,3,16,0.02
2013-3-3,56.5,44.0,36.7,40.2,34.6,31.1,84,70,51,30.29,30.17,12,4,16,0.00
2013-3-4,56.3,40.3,32.8,41.9,32.8,27.5,82,75,55,30.29,29.92,8,2,8,0.00
2013-3-5,51.8,42.3,35.1,40.5,35.3,28.5,86,76,60,29.92,29.72,10,2,13,0.01
2013-3-6,43.2,41.7,39.8,40.1,38.5,37.1,91,88,85,29.86,29.61,5,1,6,0.34
2013-3-7,52.9,43.2,38.9,47.3,39.9,36.5,93,88,79,30.09,29.85,5,1,6,0.07
2013-3-8,58.3,44.0,39.1,45.6,38.0,34.1,91,80,52,30.22,30.07,7,2,7,0.00
2013-3-9,60.7,43.8,33.5,46.4,37.0,29.7,87,77,53,30.48,30.23,6,2,8,0.00
2013-3-10,47.2,43.5,40.7,42.0,39.0,37.0,90,84,79,30.47,30.40,4,1,6,0.04
2013-3-11,51.8,45.0,41.8,46.0,40.9,38.5,90,86,75,30.43,30.06,5,1,9,0.00
2013-3-12,54.5,47.5,41.8,51.0,44.7,38.4,93,90,87,30.07,29.94,6,1,6,0.26
2013-3-13,56.3,49.6,46.1,52.2,47.2,44.5,94,91,84,30.11,30.00,5,1,5,0.09
2013-3-14,55.1,48.3,45.2,51.0,45.7,42.8,94,91,79,30.08,29.96,5,1,6,0.00
2013-3-15,58.1,47.5,38.5,50.9,44.4,36.4,94,89,74,30.17,30.08,7,1,7,0.01
2013-3-16,49.3,45.1,39.6,45.5,40.9,33.2,93,86,64,30.10,29.84,17,3,22,0.09
2013-3-17,48.2,42.8,38.7,36.2,32.7,27.7,80,68,51,30.15,29.93,16,5,17,0.00
2013-3-18,54.4,43.0,36.4,37.3,33.7,29.8,90,71,46,30.22,30.04,15,4,17,0.07
2013-3-19,50.0,41.3,33.5,39.4,34.4,28.8,85,77,61,30.21,29.52,18,3,26,0.00
2013-3-20,55.1,46.7,36.9,47.4,38.0,28.9,90,72,56,29.97,29.21,19,5,21,0.02
2013-3-21,47.2,39.6,32.8,38.1,31.6,26.8,87,73,61,30.18,29.98,13,4,16,0.00
2013-3-22,58.1,42.4,34.7,37.5,30.0,24.1,77,62,37,30.36,30.18,9,3,11,0.00
2013-3-23,52.9,41.1,33.5,37.9,31.1,25.8,77,68,53,30.36,30.28,7,2,9,0.00
2013-3-24,57.2,41.3,32.4,40.3,33.0,27.3,85,73,48,30.28,30.11,8,2,8,0.00
2013-3-25,65.2,45.4,33.5,41.8,34.4,28.8,86,67,39,30.11,29.94,7,2,7,0.00
2013-3-26,57.2,47.9,41.0,41.1,37.3,33.5,80,67,49,30.00,29.95,5,2,5,0.00
2013-3-27,56.3,48.1,41.8,45.5,41.1,37.7,90,77,64,29.98,29.93,5,1,5,0.00
2013-3-28,69.5,50.2,41.9,50.2,42.4,38.3,89,76,44,30.13,29.97,6,2,6,0.01
2013-3-29,70.2,48.9,40.5,51.2,43.0,37.8,93,81,48,30.25,30.12,6,2,6,0.00
2013-3-30,74.0,50.7,35.6,52.2,42.1,32.6,93,75,44,30.26,30.08,7,2,8,0.00
2013-3-31,76.0,55.6,44.3,49.0,41.6,37.2,78,61,34,30.08,29.90,8,2,8,0.00